CW3827 Weather Reports


Display with metric or nautical units.
time (UTC)temp
F
wind
direction
speed
MPH
gust
MPH
rain 1hr
in
rain 24hr
in
rain mn
in
humidity
%
barometer
mb
20260509100019 57 346 3.0 5.0 0.00 0.00 0.00 26 1018.0
20260509094521 59 81 0.0 5.0 0.00 0.00 0.00 25 1017.9
20260509093026 59 133 4.0 9.0 0.00 0.00 0.00 25 1017.8
20260509091530 58 79 7.0 10.0 0.00 0.00 0.00 26 1017.9
20260509090040 57 53 7.0 10.0 0.00 0.00 0.00 27 1017.9
20260509084526 57 74 6.0 10.0 0.00 0.00 0.00 27 1017.9
20260509083022 58 54 8.0 13.0 0.00 0.00 0.00 26 1017.9
20260509081525 58 49 10.0 13.0 0.00 0.00 0.00 26 1017.8
20260509080020 58 4 9.0 13.0 0.00 0.00 0.00 27 1017.9
20260509074514 59 78 9.0 13.0 0.00 0.00 0.00 27 1018.0
20260509073030 58 61 9.0 13.0 0.00 0.00 0.00 27 1018.0
20260509071509 58 54 8.0 13.0 0.00 0.00 0.00 28 1018.0
20260509070038 57 44 6.0 11.0 0.00 0.00 0.00 29 1018.2
20260509064527 57 11 0.0 0.0 0.00 0.00 0.00 29 1018.3
20260509063035 58 65 0.0 11.0 0.00 0.00 0.00 28 1018.3
20260509061518 59 34 4.0 8.0 0.00 0.00 0.00 27 1018.2
20260509060021 59 349 9.0 12.0 0.00 0.00 0.00 27 1018.3
20260509054511 60 59 11.0 14.0 0.00 0.00 0.00 26 1018.3
20260509053026 60 70 12.0 17.0 0.00 0.00 0.00 26 1018.4
20260509051526 61 65 11.0 19.0 0.00 0.00 0.00 25 1018.5
20260509050023 62 99 13.0 18.0 0.00 0.00 0.00 25 1018.4
20260509044521 61 75 12.0 15.0 0.00 0.00 0.00 25 1018.4
20260509043015 62 37 11.0 18.0 0.00 0.00 0.00 23 1018.4
20260509041512 63 40 9.0 16.0 0.00 0.00 0.00 22 1018.4
20260509040028 64 58 8.0 15.0 0.00 0.00 0.00 21 1018.4
20260509034523 65 63 11.0 14.0 0.00 0.00 0.00 20 1018.2
20260509033025 64 177 4.0 12.0 0.00 0.00 0.00 20 1018.1
20260509031522 60 213 5.0 8.0 0.00 0.00 0.00 21 1017.8
20260509030020 62 211 3.0 5.0 0.00 0.00 0.00 20 1017.8
20260509024517 66 219 0.0 0.0 0.00 0.00 0.00 18 1017.8
20260509023028 64 321 0.0 0.0 0.00 0.00 0.00 19 1017.6
20260509021528 65 295 0.0 0.0 0.00 0.00 0.00 18 1017.4
20260509020006 68 304 0.0 0.0 0.00 0.00 0.00 16 1017.2
20260509014512 72 13 0.0 0.0 0.00 0.00 0.00 15 1017.0
20260509013003 73 32 0.0 4.0 0.00 0.00 0.00 14 1016.7
20260509011504 77 32 3.0 7.0 0.00 0.00 0.00 13 1016.6
20260509010014 78 36 0.0 6.0 0.00 0.00 0.00 12 1016.6
20260509004516 78 34 2.0 7.0 0.00 0.00 0.00 12 1016.5
20260509003020 78 8 0.0 12.0 0.00 0.00 0.00 12 1016.4
20260509001506 79 47 5.0 9.0 0.00 0.00 0.00 12 1016.3
20260509000004 78 77 0.0 14.0 0.00 0.00 0.00 12 1016.2
20260508234504 79 89 4.0 18.0 0.00 0.00 0.00 12 1016.2
20260508233016 79 67 4.0 12.0 0.00 0.00 0.00 12 1016.1
20260508231513 79 82 4.0 11.0 0.00 0.00 0.00 12 1016.0
20260508230018 79 75 4.0 11.0 0.00 0.00 0.00 11 1016.0
20260508224509 79 63 7.0 17.0 0.00 0.00 0.00 11 1016.1
20260508223004 79 115 4.0 12.0 0.00 0.00 0.00 12 1016.0
20260508221504 79 85 6.0 20.0 0.00 0.00 0.00 11 1016.2
20260508220019 79 351 3.0 11.0 0.00 0.00 0.00 12 1016.4
20260508214518 79 74 10.0 23.0 0.00 0.00 0.00 12 1016.6
20260508213013 78 13 5.0 22.0 0.00 0.00 0.00 13 1016.7
20260508211516 79 65 9.0 16.0 0.00 0.00 0.00 13 1016.7
20260508210007 77 188 0.0 20.0 0.00 0.00 0.00 14 1016.8
20260508204507 78 77 14.0 21.0 0.00 0.00 0.00 14 1017.0
20260508203022 78 56 15.0 22.0 0.00 0.00 0.00 14 1017.2
20260508201522 78 23 6.0 20.0 0.00 0.00 0.00 14 1017.3
20260508200022 78 60 13.0 18.0 0.00 0.00 0.00 14 1017.3
20260508194514 78 5 2.0 18.0 0.00 0.00 0.00 14 1017.4
20260508193012 77 150 8.0 20.0 0.00 0.00 0.00 15 1017.5
20260508191516 77 152 8.0 19.0 0.00 0.00 0.00 14 1017.6
20260508190032 76 63 7.0 17.0 0.00 0.00 0.00 15 1017.8
20260508184520 75 65 4.0 19.0 0.00 0.00 0.00 16 1017.8
20260508183018 75 56 8.0 21.0 0.00 0.00 0.00 16 1018.2
20260508181517 75 54 10.0 16.0 0.00 0.00 0.00 17 1018.5
20260508180012 74 335 7.0 20.0 0.00 0.00 0.00 17 1018.8
20260508174531 73 77 16.0 27.0 0.00 0.00 0.00 18 1019.1
20260508173027 73 70 2.0 18.0 0.00 0.00 0.00 18 1019.3
20260508171526 71 48 3.0 15.0 0.00 0.00 0.00 19 1019.5
20260508170005 73 32 8.0 18.0 0.00 0.00 0.00 19 1019.6
20260508164503 71 25 8.0 17.0 0.00 0.00 0.00 20 1019.6
20260508163005 70 51 5.0 15.0 0.00 0.00 0.00 20 1019.6
20260508161503 69 92 1.0 15.0 0.00 0.00 0.00 20 1019.7
20260508160004 70 170 0.0 7.0 0.00 0.00 0.00 20 1019.9
20260508154505 68 226 3.0 8.0 0.00 0.00 0.00 22 1019.8
20260508153004 69 201 2.0 4.0 0.00 0.00 0.00 24 1019.8
20260508151504 67 120 0.0 1.0 0.00 0.00 0.00 26 1019.9
20260508150005 65 337 0.0 5.0 0.00 0.00 0.00 28 1020.0
20260508144504 64 44 3.0 6.0 0.00 0.00 0.00 29 1019.9
20260508143005 62 47 0.0 5.0 0.00 0.00 0.00 30 1020.0
20260508141506 62 354 0.0 5.0 0.00 0.00 0.00 31 1020.0
20260508140007 60 204 0.0 2.0 0.00 0.00 0.00 32 1020.0
20260508134507 59 162 0.0 0.0 0.00 0.00 0.00 33 1019.9
20260508133013 57 168 0.0 0.0 0.00 0.00 0.00 34 1019.9
20260508131508 55 176 0.0 1.0 0.00 0.00 0.00 36 1019.7
20260508130007 51 153 0.0 0.0 0.00 0.00 0.00 39 1019.6
20260508124509 48 140 0.0 3.0 0.00 0.00 0.00 40 1019.2
20260508123009 46 112 1.0 5.0 0.00 0.00 0.00 41 1019.0
20260508121513 47 110 0.0 1.0 0.00 0.00 0.00 42 1018.7
20260508120013 47 77 0.0 0.0 0.00 0.00 0.00 39 1018.6
20260508114517 49 102 2.0 4.0 0.00 0.00 0.00 37 1018.4
20260508113016 50 98 2.0 4.0 0.00 0.00 0.00 36 1018.4
20260508111516 52 100 0.0 0.0 0.00 0.00 0.00 35 1018.5
20260508110008 52 91 0.0 1.0 0.00 0.00 0.00 35 1018.6
20260508104513 52 59 1.0 2.0 0.00 0.00 0.00 35 1018.4
20260508103009 50 68 2.0 4.0 0.00 0.00 0.00 36 1018.4